www.pogodaiklimat.ru

Погода и климат >> Архив погоды >> Алжир >> Уаргла


ПОГОДА в Уаргла

  • Прогноз погоды в Уаргла
  • Монитор погоды в Уаргла

АРХИВ ПОГОДЫ в Уаргла

Время (UTC), дата Ветер
(напр.,м/с)
 
Видим.   Явления Облачность Т
(С)
Тd
(С)
f
(%)
Тe
(С)
Тes
(С)
Комфортность P
(гПа)
Po
(гПа)
Тmin
(С)
Tmax
(С)
R
(мм)
R24
(мм)
S
(см)
15 14.07 СЗ 3 10 км 3/0
[Ac trans]
+49.4 +44 +52 опасность
перегрева
1005.1 989.5
18 14.07 З 4 10 км 4/1 1380 м
[Cu med, cong Ac trans]
+47.5 +42 +42 опасность
перегрева
1004.3 988.6 +50.0
21 14.07 ЮЗ 4 10 км 4/1 1380 м
[Cu med, cong Ac trans]
+41.4 +36 +36 очень
жарко
1005.1 989.1
00 15.07 З 3 10 км 3/0
[Ac trans]
+38.1 +33 +33 жарко 1004.1 987.9
03 15.07 С 4 10 км ясно +34.1 +29 +29 жарко 1004.5 988.1
06 15.07 С 2 6000 м ясно +31.2 +4.3 18 +29 +31 жарко 1006.5 989.9 +30.3
09 15.07 С 7 6000 м ясно +37.0 +4.0 13 +34 +38 очень
жарко
1007.5 991.2
12 15.07 С 6 8000 м ясно +40.4 +2.7 10 +37 +46 очень
жарко
1006.9 990.8
15 15.07 С 6 8000 м ясно +41.6 +5.8 11 +39 +43 очень
жарко
1005.9 989.9
18 15.07 С 5 8000 м ясно +39.6 +5.6 13 +37 +37 очень
жарко
1006.2 990.1 +42.6
21 15.07 СВ 4 10 км ясно +34.5 +7.4 19 +33 +33 жарко 1007.7 991.3
00 16.07 СВ 4 10 км ясно +31.5 +6.5 21 +30 +30 жарко 1007.4 990.8
03 16.07 С 4 10 км ясно +28.7 +7.3 26 +28 +28 жарко 1007.8 991.1
06 16.07 С 4 10 км ясно +29.6 +9.1 28 +29 +30 жарко 1009.1 992.4 +28.4
09 16.07 С 7 10 км ясно +36.5 +10.5 21 +36 +39 очень
жарко
1010.3 993.9
12 16.07 С 8 8000 м ясно +39.8 +5.1 12 +37 +41 очень
жарко
1010.1 993.9
15 16.07 С 9 8000 м ясно +40.5 +4.9 11 +37 +38 очень
жарко
1009.1 993.0
18 16.07 С 7 8000 м ясно +38.4 +3.0 11 +35 +35 очень
жарко
1009.5 993.2 +41.1
21 16.07 СВ 4 10 км ясно +33.0 -3.7 9 +29 +29 жарко 1011.3 994.7
00 17.07 СВ 4 10 км ясно +30.9 +6.5 22 +29 +29 жарко 1011.3 994.6
03 17.07 штиль 0 10 км 3/0
[Ac trans]
+27.7 +5.9 25 +27 +27 жарко 1010.4 993.6
06 17.07 С 2 10 км 9/9 1380 м
[]
+28.1 +9.3 31 +28 +28 жарко 1011.4 994.6 +26.3
09 17.07 ЮВ 6 10 км 5/0
[Ac trans Ci fib]
+35.4 +11.8 24 +35 +39 очень
жарко
1011.9 995.4
12 17.07 В 4 10 км 5/0
[Ac trans Ci fib]
+38.8 +8.8 16 +37 +49 очень
жарко
1011.3 995.0
15 17.07 В 3 10 км 4/1 1380 м
[Cu med, cong Ac trans]
+40.4 +5.8 12 +38 +44 очень
жарко
1010.1 993.9
18 17.07 В 4 10 км 9/5 1380 м
[Cu med, cong Ac trans]
+39.0 +6.4 14 +36 +36 очень
жарко
1009.3 993.1 +40.8
21 17.07 В 4 10 км 6/3 1380 м
[Cu med, cong Ac trans]
+35.6 +8.3 19 +34 +34 очень
жарко
1009.9 993.5
00 18.07 В 4 10 км 4/3 1380 м
[Cu med, cong Ac trans]
+32.5 +9.4 24 +32 +32 жарко 1010.4 993.8
03 18.07 В 5 10 км 4/3 1380 м
[Cu med, cong Ac trans]
+31.4 +8.9 25 +31 +31 жарко 1009.4 992.8
06 18.07 СЗ 2 10 км 9/5 1200 м
[Cu med, cong Ac trans]
+30.5 +9.2 27 +30 +30 жарко 1012.0 995.3 +30.0
09 18.07 В 3 8000 м 8/6 1000 м
[Cb calv Ac trans]
+34.0 +10.1 23 +33 +36 жарко 1010.5 994.0
12 18.07 СВ 3 10 км 6/5 1000 м
[Cu Sc Ac trans]
+38.0 +6.6 15 +36 +43 очень
жарко
1009.6 993.3
15 18.07 С 5 10 км 6/4 1200 м
[Cu med, cong Ac trans]
+39.4 +6.3 13 +37 +40 очень
жарко
1008.7 992.5
18 18.07 С 4 10 км 6/3 1200 м
[Cu med, cong Ac trans]
+38.6 +6.9 15 +36 +36 очень
жарко
1008.6 992.4 +40.8
21 18.07 В 2 10 км 3/0
[Ac trans]
+33.5 +7.8 20 +32 +32 жарко 1010.2 993.7
00 19.07 штиль 0 10 км ясно +30.4 +7.7 24 +29 +29 жарко 1010.2 993.5
03 19.07 СВ 3 10 км ясно +29.0 +7.5 26 +28 +28 жарко 1009.8 993.0
06 19.07 В 6 10 км ясно +29.2 +10.7 32 +30 +30 жарко 1011.1 994.3 +28.7
09 19.07 В 4 10 км ясно +35.4 +10.4 22 +34 +45 очень
жарко
1012.4 995.9
12 19.07 В 5 10 км ясно +41.8 +6.9 12 +39 +50 очень
жарко
1011.6 995.5
15 19.07 СВ 4 10 км ясно +42.0 +4.0 10 +39 +46 очень
жарко
1010.1 994.0
18 19.07 В 6 10 км ясно +39.9 +4.5 11 +37 +37 очень
жарко
1010.2 994.0 +42.5
21 19.07 В 5 10 км ясно +36.3 +3.3 13 +33 +33 жарко 1011.5 995.1
00 20.07 В 5 10 км ясно +33.7 +5.0 17 +31 +31 жарко 1011.9 995.4
03 20.07 В 6 10 км ясно +31.3 +5.4 20 +29 +29 жарко 1011.4 994.7
06 20.07 ЮВ 6 8000 м ясно +29.7 +10.3 30 +30 +30 жарко 1013.1 996.3 +29.2
09 20.07 ЮВ 9 8000 м ясно +36.8 +8.7 18 +35 +37 очень
жарко
1014.5 998.1
12 20.07 В 7 10 км ясно +40.8 +5.2 11 +38 +44 очень
жарко
1013.7 997.5
15 20.07 В 5 10 км ясно +42.1 +3.4 9 +39 +44 очень
жарко
1012.5 996.4
18 20.07 В 3 10 км ясно +40.5 +3.3 10 +37 +37 очень
жарко
1012.1 995.9 +42.7
21 20.07 В 4 10 км ясно +36.7 +2.6 12 +33 +33 жарко 1013.6 997.2
00 21.07 В 3 10 км ясно +34.3 +4.1 15 +32 +32 жарко 1014.4 997.8
03 21.07 штиль 0 10 км ясно +30.0 +3.9 19 +28 +28 жарко 1013.7 996.9
06 21.07 Ю 2 10 км 4/1 1200 м
[Cu med, cong Ac trans]
+29.5 +4.2 20 +28 +29 жарко 1013.6 996.8 +28.7
09 21.07 ЮВ 4 10 км 4/0
[Ac trans Ci fib]
+38.5 +3.6 12 +35 +43 очень
жарко
1014.4 998.1
12 21.07 В 3 10 км 3/0
[Ci fib]
+42.8 +4.8 10 +40 +55 опасность
солнечного
удара
1014.5 998.4

 

Местоположение метеостанции Уаргла (Алжир): широта 31.93 долгота 5.40 высота над уровнем моря 148 м.

В архиве по умолчанию представлена погода в Уаргла за последнюю неделю. Архивные данные за месяц целиком и за предыдущие месяцы, начиная с января 2011 года, Вы можете получить, выбрав интересующий диапазон дат из раскрывающегося списка и нажав кнопку "Ввод!".


*Определитесь, кто Вы:
робот инопланетянин человек

Внимание! Время в таблицах - всемирное. Для получения местного времени необходимо прибавить поправку, которая равна 1 ч.

Смотрите также архив погоды в соседних городах и на ближайших метеорологических станциях:

Погода в Хасси-Мессауде (Алжир) (77 км)
Погода в Туггурте (Алжир) (149 км)
Погода в Гардая (Алжир) (159 км)
Погода в Эль-Уэде (Алжир) (217 км)
Погода в Хасси-Рмель (Алжир) (228 км)
Погода в Роуд-Ноусс (Алжир) (275 км)
Погода в Эль-Голеа (Алжир) (284 км)
Погода в Лагуате (Алжир) (308 км)
Погода в Бискре (Алжир) (321 км)
Погода в Джельфе (Алжир) (327 км)

Пояснения к столбцам:

Ветер - указаны скорость ветра в м/с - средняя за 10 мин, порывы в срок и между сроками (в фигурных скобках) и направление, откуда дует ветер: С - северный, СВ - северо-восточный, В - восточный, ЮВ - юго-восточный, Ю - южный, ЮЗ - юго-западный, З - западный, СЗ - северо-западный.
Видимость - горизонтальная дальность видимости в метрах или километрах. При видимости от 1 до 10 км при отсутствии осадков обычно наблюдается дымка, при ухудшении видимости до 1 км и менее - туман. В сухую погоду видимость может ухудшаться дымом, пылью или мглою.
Явления - указаны атмосферные явления, наблюдавшиеся в срок или в последний час перед сроком; фигурными скобками обозначены явления, наблюдавшиеся между сроками (за 1-3 часа до срока); квадратными скобками обозначены град или гололедные отложения с указанием их диаметра в мм.
Облачность - указаны через наклонную черту общая и нижняя облачность в баллах и высота нижней границы облаков в метрах; квадратными скобками обозначены формы облаков: Ci - перистые, Cs - перисто-слоистые, Cc - перисто-кучевые, Ac - высококучевые, As - высокослоистые, Sc - слоисто-кучевые, Ns - слоисто-дождевые, Cu - кучевые, Cb - кучево-дождевые. Подробнее классификацию облаков см. в Атласе облаков (PDF).
T - Температура воздуха - температура, измеренная на высоте 2 м над землей.
Td - Температура точки росы - температура, при понижении до которой содержащийся в воздухе водяной пар достигнет насыщения.
f - Относительная влажность воздуха - влажноcть воздуха, измеренная на высоте 2 м над землей.
Te - Эффективная температура - температура, которую ощущает одетый по сезону человек в тени. Характеристика душности погоды. При расчете учитывается влияние влажности воздуха и скорости ветра на теплоощущения человека.
Tes - Эффективная температура на солнце - температура, которую ощущает человек, с поправкой на солнечный нагрев. Характеристика знойности погоды. Зависит от высоты солнца над горизонтом, облачности и скорости ветра. Ночью, в пасмурную погоду, а также при ветре 12 м/с и более поправка равна нулю.
P - Атмосферное давление - приведенное к уровню моря атмосферное давление.
Po - Атмосферное давление - измеренное на уровне метеостанции атмосферное давление.
Tmin - Минимальная температура - минимум температуры воздуха на высоте 2 м над землей.
Tmax - Максимальная температура - максимум температуры воздуха на высоте 2 м над землей.
R - Количество осадков - Количество выпавших осадков за период времени, мм. При наведении курсора мыши на число - период времени, за который выпало указанное количество осадков.
R24 - Количество осадков - Количество выпавших осадков за 24 часа, мм.
S - Снежный покров - Высота снежного покрова, см. При наведении курсора мыши на число - состояние снежного покрова и степень покрытия местности в баллах.